Home   Weather   Nanjing   Past weeks

Flag for China Past Weather in Nanjing, Jiangsu, China — Yesterday and Last 2 Weeks

Now
36 °F

Fog.


Feels Like: 36 °F
Forecast: 34 / 52 °F
Wind: 1 mph from North

Location: Nanjing

Current Time: Feb 23, 2017 at 9:58:52 pm

Latest Report: Feb 23, 2017 at 9:00 pm


Visibility: 2 mi

Pressure: 30.39 "Hg

Humidity: 93%

Dew Point: 34 °F

Location of NanjingLocation

Past Weather in Nanjing — Graph

°F

Nanjing Temperature Yesterday

Maximum temperature yesterday: 43 °F (at 12:00 am)
Minimum temperature yesterday: 36 °F (at 10:00 am)
Average temperature yesterday: 38 °F

High & Low Weather Summary for the Past Weeks

 TemperatureHumidityPressure
High72 °F (Feb 16, 2:00 pm)100% (Feb 13, 3:00 am)30.57 "Hg (Feb 13, 3:00 am)
Low23 °F (Feb 11, 7:00 am)15% (Feb 11, 1:00 pm)29.71 "Hg (Feb 19, 5:00 pm)
Average44 °F67%30.30 "Hg
* Reported Feb 8 8:00 pm — Feb 23 8:00 pm, Nanjing, Weather by CustomWeather, © 2017

Note: Actual official high and low records may vary slightly from our data, if they occured in-between our weather recording intervals... More about our weather records

Advertising

Nanjing Weather History for the Previous 24 Hours

Scroll right to see more
 ConditionsComfort  
Time TempWeatherWind HumidityBarometerVisibility
8:00 pm
Thu, Feb 23
37 °FFog.1 mph81%30.39 "Hg3 mi
7:00 pm41 °FPassing clouds.3 mph66%30.39 "Hg3 mi
6:00 pm43 °FPassing clouds.3 mph49%30.39 "Hg5 mi
5:00 pm45 °FClear.3 mph49%30.39 "Hg5 mi
4:00 pm45 °FClear.3 mph46%30.36 "Hg6 mi
3:00 pm43 °FPassing clouds.3 mph49%30.36 "HgN/A
2:00 pm43 °FScattered clouds.3 mph49%30.39 "Hg4 mi
1:00 pm43 °FScattered clouds.3 mph57%30.39 "Hg4 mi
12:00 pm41 °FScattered clouds.3 mph66%30.42 "Hg3 mi
11:00 am41 °FHaze.6 mph61%30.45 "Hg2 mi
10:00 am39 °FFog.1 mph75%30.42 "Hg2 mi
9:00 am37 °FFog.3 mph81%30.42 "Hg1 mi
8:00 am36 °FFog.1 mph87%30.39 "Hg1 mi
7:00 am34 °FFog.1 mph93%30.36 "Hg1 mi
6:00 am34 °FFog.3 mph93%30.33 "Hg1 mi
5:00 am34 °FFog.3 mph93%30.33 "Hg1 mi
4:00 am34 °FFog.6 mph93%30.33 "Hg1 mi
3:00 am34 °FFog.3 mph93%30.33 "Hg1 mi
2:00 am34 °FFog.3 mph93%30.33 "Hg2 mi
1:00 am34 °FFog.3 mph93%30.30 "Hg2 mi
12:00 am36 °FFog.3 mph87%30.33 "Hg2 mi
11:00 pm
Wed, Feb 22
36 °FFog.3 mph87%30.30 "Hg2 mi
10:00 pm36 °FFog.3 mph87%30.27 "Hg2 mi
9:00 pm36 °FFog.3 mph87%30.27 "Hg2 mi
Weather by CustomWeather, © 2017

See weather overviewHow to use our weather pages